[[{"header":{"parameterUnit":"m.s-1","parameterCategory":1,"la1":30.2991,"la2":30.254,"lo1":-89.0895,"lo2":-89.0444,"dy":0.0017,"dx":0.0017,"nx":28,"ny":28,"refTime":"2024-07-15T09:00:00:Z","depth":0,"parameterNumber":2,"parameterNumberName":"U-component_of_WINDS"},"data":[0,0,0,0,0,0,0,0,0,0,0,0,0,0,0,0,0,0,0,0,0,0,0,0,0,0,0,0,0,0,0,0,0,0,0,0,0,0,0,0,0,0,0,0,0,0,0,0,0,0,0,0,0,0,0,0,0,0,-0.597,-0.597,0,-0.6032,-0.6033,-0.6033,-0.6089,-0.609,-0.609,-0.6091,-0.6152,-0.6153,-0.6154,0,0,0,0,0,0,0,0,0,0,0,0,0,-0.5894,-0.5895,-0.5969,-0.597,-0.5971,-0.6032,-0.6033,-0.6034,-0.6089,-0.609,-0.609,-0.6091,-0.6152,-0.6153,-0.6155,0,0,0,0,0,0,0,0,0,0,0,0,0,-0.5939,-0.5896,-0.5969,-0.6006,-0.601,-0.6032,-0.6033,-0.6034,-0.6089,-0.609,-0.6091,-0.6092,-0.6152,-0.6153,-0.6155,-0.6145,0,0,-0.6159,-0.616,0,0,0,0,0,0,0,0,-0.5936,-0.5942,-0.6,-0.6004,-0.6008,-0.6054,-0.6029,-0.6071,-0.6088,-0.6059,-0.6091,-0.6092,-0.6119,-0.6123,-0.6132,-0.6147,-0.615,-0.616,-0.616,-0.6161,-0.6162,0,0,0,0,0,0,0,-0.5933,-0.5939,-0.5994,-0.6001,-0.6006,-0.6018,-0.6026,-0.6037,-0.6082,-0.6061,-0.6066,-0.6072,-0.6121,-0.6131,-0.6134,-0.6151,-0.616,-0.6161,-0.6162,-0.6162,-0.6158,-0.6157,0,0,0,0,0,0,-0.5925,-0.5936,-0.5992,-0.5996,-0.5974,-0.6019,-0.6027,-0.6038,-0.6082,-0.609,-0.6071,-0.6075,-0.6128,-0.6132,-0.6137,-0.6125,-0.6161,-0.6163,-0.6163,-0.6159,-0.6158,-0.6156,0,0,0,0,0,0,-0.5923,-0.5929,-0.599,-0.5967,-0.5976,-0.6019,-0.6031,-0.6039,-0.6049,-0.609,-0.6098,-0.6073,-0.6129,-0.6135,-0.6142,-0.6128,-0.6163,-0.6165,-0.616,-0.6158,-0.6157,-0.6104,0,0,0,0,0,0,-0.5921,-0.5928,-0.5926,-0.5967,-0.5977,-0.5994,-0.603,-0.6039,-0.6051,-0.6056,-0.6094,-0.6101,-0.613,-0.6139,-0.6143,-0.6131,-0.6166,-0.6161,-0.6159,-0.6157,-0.6107,-0.61,-0.6095,0,0,0,0,0,-0.5918,-0.5908,-0.5925,-0.5932,-0.5975,-0.5994,-0.5999,-0.6033,-0.605,-0.6047,-0.6073,-0.61,-0.613,-0.6139,-0.6145,-0.6132,-0.6162,-0.616,-0.6158,-0.6109,-0.6102,-0.6095,0,0,0,0,0,0,-0.5864,-0.5914,-0.5934,-0.5938,-0.5961,-0.6003,-0.6,-0.6025,-0.6043,-0.6047,-0.6088,-0.6096,-0.6097,-0.6116,-0.6126,-0.6124,-0.6149,-0.6148,-0.6111,-0.6104,-0.6098,-0.6092,-0.6167,0,0,0,0,0,-0.5853,-0.5865,-0.5908,-0.5907,-0.5918,-0.5957,-0.5966,-0.5991,-0.6016,-0.6026,-0.6053,-0.6076,-0.609,-0.6099,-0.6114,-0.6111,-0.6118,-0.6105,-0.6099,-0.6094,-0.6091,-0.6088,-0.6081,-0.6149,-0.6149,-0.6149,0,0,-0.5829,-0.5858,-0.5863,-0.5897,-0.5918,-0.5928,-0.5965,-0.5975,-0.5982,-0.6027,-0.6035,-0.6056,-0.6084,-0.6084,-0.6086,-0.61,-0.6075,-0.6091,-0.6087,-0.6087,-0.6085,-0.6078,-0.6072,-0.6147,-0.6147,-0.6148,0,0,-0.5791,-0.5815,-0.5816,-0.5836,-0.5867,-0.5893,-0.5893,-0.5932,-0.5947,-0.5956,-0.5989,-0.5998,-0.6023,-0.604,-0.6053,-0.602,-0.6043,-0.6024,-0.5992,-0.5988,-0.5983,-0.5978,-0.5963,-0.5958,-0.6022,-0.6022,-0.6021,0,-0.5757,-0.5775,-0.5813,-0.582,-0.5833,-0.5875,-0.5875,-0.5892,-0.5927,-0.5934,-0.5949,-0.5979,-0.6002,-0.6006,-0.5997,-0.6007,-0.6006,-0.6019,-0.5981,-0.5977,-0.5973,-0.5959,-0.5954,-0.6019,-0.6019,-0.6019,-0.602,0,-0.5731,-0.5742,-0.5739,-0.5771,-0.5783,-0.5787,-0.5824,-0.5832,-0.5855,-0.5878,-0.5885,-0.5914,-0.5934,-0.5938,-0.5961,-0.5944,-0.5951,-0.5974,-0.6,-0.5963,-0.595,-0.5946,-0.6015,-0.6016,-0.6017,-0.6017,0,0,-0.5659,-0.5712,-0.571,-0.5724,-0.5761,-0.577,-0.5774,-0.5795,-0.58,-0.5822,-0.5825,-0.5844,-0.5864,-0.5878,-0.5903,-0.59,-0.5868,-0.5922,-0.5923,-0.5908,-0.5848,-0.5829,-0.5823,-0.5885,-0.5885,-0.5884,-0.5845,0,-0.5625,-0.5636,-0.567,-0.567,-0.5679,-0.5719,-0.5723,-0.5745,-0.5767,-0.5777,-0.5802,-0.5813,-0.5841,-0.5848,-0.5848,-0.5872,-0.5856,-0.5876,-0.5886,-0.5886,-0.5874,-0.5817,-0.5797,-0.5759,-0.5841,-0.584,-0.5839,0,-0.5586,-0.5605,-0.5606,-0.5641,-0.5646,-0.5648,-0.5669,-0.5679,-0.5704,-0.5721,-0.5735,-0.5763,-0.5768,-0.5794,-0.58,-0.5812,-0.5819,-0.5831,-0.5831,-0.583,-0.5858,-0.5812,-0.5748,-0.5741,-0.5833,-0.5833,-0.5834,0,-0.553,-0.5556,-0.5559,-0.557,-0.5612,-0.5612,-0.5629,-0.5656,-0.5665,-0.5684,-0.569,-0.5708,-0.5717,-0.573,-0.5761,-0.5777,-0.5762,-0.5791,-0.5773,-0.5772,-0.5765,-0.5765,-0.5698,-0.5775,-0.5775,-0.5775,-0.5775,0,-0.5486,-0.5484,-0.5534,-0.5536,-0.5534,-0.5573,-0.557,-0.5591,-0.5614,-0.5618,-0.5655,-0.5659,-0.5701,-0.5709,-0.5734,-0.5733,-0.5738,-0.5749,-0.5755,-0.5744,-0.5742,-0.5746,-0.5748,-0.5773,-0.5774,-0.5774,-0.5774,0,-0.5422,-0.5456,-0.5461,-0.55,-0.551,-0.5506,-0.5539,-0.5541,-0.5566,-0.5571,-0.5575,-0.5612,-0.5623,-0.5656,-0.5676,-0.5693,-0.5683,-0.5697,-0.5674,-0.5677,-0.5656,-0.5656,-0.5587,-0.5578,-0.5663,-0.5662,-0.5662,0,-0.539,-0.5389,-0.5428,-0.5434,-0.545,-0.5459,-0.5469,-0.5507,-0.5516,-0.5543,-0.5541,-0.5556,-0.5569,-0.5584,-0.5612,-0.5627,-0.5639,-0.5614,-0.5641,-0.5629,-0.5634,-0.5632,-0.5631,-0.5607,-0.5605,-0.5605,-0.5604,0,-0.5329,-0.5345,-0.5359,-0.5377,-0.5388,-0.5404,-0.5422,-0.5425,-0.5467,-0.5474,-0.5486,-0.5496,-0.5516,-0.5528,-0.5547,-0.5563,-0.5589,-0.5596,-0.5591,-0.5578,-0.5564,-0.5568,-0.5654,-0.5596,-0.5597,-0.5597,-0.5598,-0.5598,-0.5278,-0.5278,-0.5304,-0.5317,-0.5335,-0.5351,-0.5354,-0.5378,-0.5389,-0.5408,-0.543,-0.5438,-0.5462,-0.549,-0.5504,-0.551,-0.5524,-0.5519,-0.5517,-0.5514,-0.5508,-0.5565,-0.5514,-0.5514,-0.5515,-0.5515,-0.5515,0,-0.5215,-0.5234,-0.5246,-0.527,-0.5279,-0.5305,-0.5326,-0.5331,-0.5339,-0.5359,-0.5371,-0.5383,-0.5395,-0.5424,-0.5438,-0.5437,-0.5449,-0.5439,-0.5438,-0.544,-0.5496,-0.5496,-0.5429,-0.5429,-0.5429,-0.5429,-0.5429,-0.5429,-0.5184,-0.5184,-0.5204,-0.5213,-0.5232,-0.5241,-0.525,-0.5264,-0.528,-0.5292,-0.5302,-0.5321,-0.5344,-0.536,-0.5371,-0.5379,-0.5381,-0.5366,-0.5378,-0.5429,-0.5437,-0.5444,-0.5445,-0.5367,-0.5367,-0.5321,-0.5321,-0.532]},{"header":{"parameterUnit":"m.s-1","parameterCategory":1,"la1":30.2991,"la2":30.254,"lo1":-89.0895,"lo2":-89.0444,"dy":0.0017,"dx":0.0017,"nx":28,"ny":28,"refTime":"2024-07-15T09:00:00:Z","depth":0,"parameterNumber":3,"parameterNumberName":"V-component_of_WINDS"},"data":[0,0,0,0,0,0,0,0,0,0,0,0,0,0,0,0,0,0,0,0,0,0,0,0,0,0,0,0,0,0,0,0,0,0,0,0,0,0,0,0,0,0,0,0,0,0,0,0,0,0,0,0,0,0,0,0,0,0,-2.4464,-2.4464,0,-2.4399,-2.4399,-2.4398,-2.4324,-2.4323,-2.4322,-2.4321,-2.4253,-2.4252,-2.4251,0,0,0,0,0,0,0,0,0,0,0,0,0,-2.4523,-2.4522,-2.4465,-2.4464,-2.4463,-2.44,-2.4399,-2.4398,-2.4324,-2.4323,-2.4322,-2.432,-2.4253,-2.4252,-2.4251,0,0,0,0,0,0,0,0,0,0,0,0,0,-2.4482,-2.4522,-2.4465,-2.4419,-2.4414,-2.44,-2.4399,-2.4398,-2.4325,-2.4323,-2.4321,-2.432,-2.4254,-2.4252,-2.4251,-2.4277,0,0,-2.4248,-2.4247,0,0,0,0,0,0,0,0,-2.4484,-2.448,-2.4426,-2.4422,-2.4416,-2.4368,-2.4394,-2.4357,-2.4325,-2.4359,-2.4321,-2.4319,-2.4293,-2.4288,-2.4279,-2.4274,-2.4271,-2.4248,-2.4247,-2.4246,-2.4246,0,0,0,0,0,0,0,-2.4487,-2.4482,-2.4439,-2.4426,-2.442,-2.44,-2.4393,-2.4387,-2.4335,-2.4355,-2.435,-2.4343,-2.429,-2.4281,-2.4277,-2.427,-2.4248,-2.4247,-2.4246,-2.4245,-2.4279,-2.428,0,0,0,0,0,0,-2.4497,-2.4485,-2.4441,-2.4437,-2.4447,-2.4401,-2.4392,-2.4385,-2.4335,-2.4326,-2.4345,-2.434,-2.4284,-2.4279,-2.4275,-2.4299,-2.4246,-2.4245,-2.4245,-2.4277,-2.4279,-2.4281,0,0,0,0,0,0,-2.4499,-2.4494,-2.4443,-2.4459,-2.4451,-2.4402,-2.4394,-2.4385,-2.4376,-2.4327,-2.4318,-2.4345,-2.4282,-2.4276,-2.4276,-2.4296,-2.4245,-2.4244,-2.4275,-2.4278,-2.428,-2.435,0,0,0,0,0,0,-2.4501,-2.4495,-2.4505,-2.446,-2.4451,-2.4447,-2.4396,-2.4385,-2.4374,-2.4368,-2.4325,-2.4317,-2.428,-2.4278,-2.4275,-2.4293,-2.4243,-2.4273,-2.4276,-2.4279,-2.4346,-2.4355,-2.4363,0,0,0,0,0,-2.4503,-2.4527,-2.4506,-2.4501,-2.4462,-2.4449,-2.4443,-2.4401,-2.4376,-2.4385,-2.4354,-2.4318,-2.4295,-2.4279,-2.4275,-2.4293,-2.4272,-2.4275,-2.4279,-2.4342,-2.4353,-2.4362,0,0,0,0,0,0,-2.4575,-2.4521,-2.4496,-2.4507,-2.4483,-2.4436,-2.4446,-2.4414,-2.4397,-2.4391,-2.434,-2.4331,-2.4336,-2.4315,-2.4298,-2.4314,-2.4278,-2.4281,-2.4328,-2.4338,-2.4346,-2.435,-2.4242,0,0,0,0,0,-2.4593,-2.4587,-2.4539,-2.4553,-2.4542,-2.4497,-2.4489,-2.4459,-2.4432,-2.4421,-2.439,-2.4364,-2.4351,-2.4343,-2.4328,-2.4343,-2.4331,-2.4353,-2.4361,-2.4368,-2.4371,-2.4375,-2.4383,-2.4293,-2.4293,-2.4292,0,0,-2.4628,-2.4598,-2.4597,-2.4567,-2.4545,-2.4539,-2.4489,-2.4485,-2.4479,-2.442,-2.4418,-2.4394,-2.4362,-2.4369,-2.437,-2.4351,-2.4394,-2.4373,-2.4379,-2.4378,-2.4379,-2.4388,-2.4396,-2.4295,-2.4295,-2.4294,0,0,-2.469,-2.4667,-2.4675,-2.4654,-2.4621,-2.459,-2.4592,-2.455,-2.4532,-2.4529,-2.4484,-2.4476,-2.4455,-2.4433,-2.442,-2.4472,-2.4437,-2.4468,-2.4511,-2.4515,-2.4522,-2.4528,-2.4545,-2.4552,-2.4471,-2.4471,-2.4472,0,-2.4738,-2.4728,-2.4683,-2.4682,-2.4669,-2.4616,-2.4623,-2.4604,-2.4568,-2.456,-2.4539,-2.451,-2.4485,-2.4485,-2.4497,-2.4489,-2.4488,-2.4472,-2.4525,-2.453,-2.4535,-2.4551,-2.4557,-2.4475,-2.4475,-2.4474,-2.4474,0,-2.4788,-2.4782,-2.4792,-2.4758,-2.4747,-2.475,-2.4705,-2.4699,-2.4669,-2.464,-2.4637,-2.4604,-2.4581,-2.4579,-2.4551,-2.4575,-2.4563,-2.4535,-2.4497,-2.4549,-2.4562,-2.4568,-2.4481,-2.4479,-2.4478,-2.4477,0,0,-2.4893,-2.4834,-2.4839,-2.4822,-2.4782,-2.4775,-2.4775,-2.4753,-2.4747,-2.4724,-2.4721,-2.4704,-2.4676,-2.4661,-2.4629,-2.4633,-2.4674,-2.4603,-2.4602,-2.4616,-2.4696,-2.4717,-2.4725,-2.4652,-2.4653,-2.4653,-2.4698,0,-2.4946,-2.4943,-2.4903,-2.4911,-2.4903,-2.4852,-2.4851,-2.4826,-2.4798,-2.4787,-2.4756,-2.4744,-2.471,-2.47,-2.4702,-2.4669,-2.4689,-2.4665,-2.4647,-2.4647,-2.4656,-2.4732,-2.4755,-2.4799,-2.4703,-2.4704,-2.4705,0,-2.5008,-2.4988,-2.4996,-2.4953,-2.4949,-2.4949,-2.4924,-2.4915,-2.4884,-2.4863,-2.4846,-2.481,-2.4805,-2.4771,-2.4762,-2.4747,-2.4737,-2.4719,-2.472,-2.4716,-2.4678,-2.4729,-2.4812,-2.4818,-2.4713,-2.4712,-2.4712,0,-2.5082,-2.5057,-2.5058,-2.5046,-2.4997,-2.4998,-2.4977,-2.4945,-2.4934,-2.4912,-2.4903,-2.4881,-2.4869,-2.4852,-2.481,-2.4789,-2.4806,-2.4768,-2.4787,-2.4788,-2.4792,-2.4792,-2.4874,-2.4788,-2.4788,-2.4788,-2.4788,0,-2.5145,-2.5151,-2.5091,-2.5091,-2.5096,-2.5049,-2.5054,-2.5029,-2.5,-2.4993,-2.4948,-2.4942,-2.4888,-2.4876,-2.4843,-2.484,-2.4835,-2.4817,-2.4808,-2.4821,-2.4823,-2.4813,-2.4808,-2.479,-2.4789,-2.4789,-2.4789,0,-2.5228,-2.5188,-2.5185,-2.5139,-2.5128,-2.5133,-2.5093,-2.509,-2.506,-2.5052,-2.5047,-2.4999,-2.4982,-2.4939,-2.4911,-2.4889,-2.4894,-2.4879,-2.4905,-2.4899,-2.492,-2.4918,-2.4996,-2.5003,-2.4915,-2.4916,-2.4917,0,-2.5271,-2.5274,-2.5228,-2.5221,-2.5202,-2.5191,-2.5179,-2.5132,-2.5121,-2.5085,-2.5087,-2.5066,-2.5047,-2.5023,-2.4984,-2.4962,-2.4945,-2.4974,-2.4941,-2.4953,-2.4943,-2.4943,-2.4942,-2.4981,-2.4982,-2.4983,-2.4984,0,-2.5349,-2.5329,-2.5314,-2.5291,-2.5278,-2.5258,-2.5235,-2.5231,-2.5178,-2.5168,-2.515,-2.5136,-2.5107,-2.5087,-2.5058,-2.5035,-2.5,-2.4994,-2.4997,-2.5009,-2.5024,-2.5014,-2.4923,-2.4993,-2.4992,-2.4991,-2.4991,-2.499,-2.5412,-2.5412,-2.5379,-2.5363,-2.5341,-2.5321,-2.5316,-2.5284,-2.5269,-2.5242,-2.5215,-2.52,-2.5167,-2.5125,-2.5105,-2.5091,-2.5073,-2.5078,-2.5078,-2.508,-2.5085,-2.5027,-2.5086,-2.5086,-2.5085,-2.5085,-2.5085,0,-2.5487,-2.5463,-2.5449,-2.5418,-2.5405,-2.5374,-2.5347,-2.5337,-2.5325,-2.5298,-2.528,-2.5259,-2.5238,-2.5198,-2.5174,-2.517,-2.5153,-2.5165,-2.5164,-2.5159,-2.5103,-2.5103,-2.5179,-2.5179,-2.5179,-2.5179,-2.5179,-2.5179,-2.5524,-2.5522,-2.5498,-2.5483,-2.5459,-2.5444,-2.5431,-2.5411,-2.5389,-2.5367,-2.535,-2.5325,-2.5291,-2.5264,-2.5243,-2.5231,-2.5224,-2.5241,-2.5224,-2.5172,-2.5163,-2.5155,-2.5154,-2.524,-2.524,-2.5281,-2.5281,-2.5281]}]]